This is the latest recevied weather packets stored in our database for station/object EA5GTE-12. If no packets are shown the sender has not sent any weather packets the latest 10 day(s).
| Time | Temp. | Humidity | Pressure | Rain* | Wind** | Luminosity | Snow |
|---|---|---|---|---|---|---|---|
| 1778034148 | 6.67° C | 100% | 935.3 hPa | - | - | - | - |
| 1778033248 | 6.11° C | 100% | 935 hPa | - | - | - | - |
| 1778032348 | 6.11° C | 100% | 935 hPa | - | - | - | - |
| 1778031448 | 6.11° C | 100% | 935 hPa | - | - | - | - |
| 1778030547 | 6.67° C | 100% | 935.1 hPa | - | - | - | - |
| 1778028751 | 7.22° C | 100% | 935.1 hPa | - | - | - | - |
| 1778027851 | 7.22° C | 100% | 935.3 hPa | - | - | - | - |
| 1778026951 | 7.78° C | 98% | 935.4 hPa | - | - | - | - |
| 1778026051 | 7.22° C | 100% | 935.6 hPa | - | - | - | - |
| 1778025149 | 7.78° C | 100% | 935.6 hPa | - | - | - | - |
| 1778024249 | 8.89° C | 83% | 935.5 hPa | - | - | - | - |
| 1778023349 | 7.78° C | 98% | 935.5 hPa | - | - | - | - |
| 1778022449 | 8.33° C | 97% | 935.5 hPa | - | - | - | - |
| 1778021549 | 8.33° C | 89% | 935.3 hPa | - | - | - | - |
| 1778020648 | 8.89° C | 81% | 935.3 hPa | - | - | - | - |
| 1778019748 | 8.89° C | 78% | 935.4 hPa | - | - | - | - |
| 1778018848 | 8.89° C | 82% | 935.4 hPa | - | - | - | - |
| 1778017948 | 10° C | 68% | 935.3 hPa | - | - | - | - |
| 1778017048 | 10.56° C | 66% | 935.2 hPa | - | - | - | - |
| 1778016148 | 11.11° C | 60% | 935 hPa | - | - | - | - |
| 1778015248 | 11.67° C | 56% | 935 hPa | - | - | - | - |
| 1778014347 | 11.11° C | 60% | 935 hPa | - | - | - | - |
| 1778013447 | 11.11° C | 60% | 935 hPa | - | - | - | - |
| 1778012547 | 11.67° C | 52% | 935 hPa | - | - | - | - |
| 1778011647 | 11.11° C | 61% | 934.7 hPa | - | - | - | - |
* Rain since midnight (hover to see other rain measurements)
** Current wind speed in m/s (hover to see current wind gust speed)